Weather Service Report


999 
ASUS41 KAKQ 311010
RWRAKQ

REGIONAL WEATHER ROUNDUP
NATIONAL WEATHER SERVICE WAKEFIELD VA
600 AM EDT FRI OCT 31 2014

Note: "fair" indicates few or no clouds below 12,000 feet with no
significant weather and/or obstructions to visibility. * = Denotes
station may not report precipitation (e.g., rain,snow,etc.),
thunder or fog.

VAZ042-051-052>054-056-311100-
NORTHERN VIRGINIA
  
CITY           SKY/WX    TMP DP  RH WIND       PRES   REMARKS
WASH NATIONAL  MOCLDY    49  40  71 NE5       30.02S                  
DULLES         MOCLDY    37  35  92 CALM      30.00F                  
FORT BELVOIR   CLOUDY    40  38  92 CALM      30.01S                  
QUANTICO       PTCLDY    41  36  82 NW7       30.01F                  
FREDERICKSBRG* CLEAR     39  39 100 CALM      30.00S                  
STAFFORD*      CLEAR     33  33 100 CALM      30.04F                  
WARRENTON      CLEAR     33  33 100 CALM      30.00S FOG              
CULPEPER*      PTCLDY    34  34 100 CALM      30.01S FOG              
MANASSAS*      CLOUDY    37  36  93 CALM      30.01S                  
LEESBURG*      CLOUDY    37  37 100 CALM      30.01S                  
WINCHESTER     PTCLDY    39  32  75 CALM      30.00S                  
FRONT ROYAL*   MOSUNNY   36  34  93 CALM      30.00S                  
LURAY*         MOSUNNY   36  36 100 SW3       30.01S                  
$$

VAZ048-049-060>072-079>083-311100-
CENTRAL AND SOUTH CENTRAL VIRGINIA...AND NORTH CENTRAL NORTH CAROLINA
  
CITY           SKY/WX    TMP DP  RH WIND       PRES   REMARKS
RICHMOND       CLOUDY    46  38  73 NE7       29.98F                  
CHESTERFIELD*  CLOUDY    45  30  57 CALM      30.00F                  
PETERSBURG*    PTCLDY    43  38  84 N3        29.99F                  
HANOVER        MOCLDY    42  38  85 CALM      30.01F                  
TAPPAHANNOCK*  CLOUDY    41  38  88 CALM      30.01R                  
CHARLOTTSVILLE MOCLDY    35  33  92 W5        30.00S                  
ORANGE*        MOCLDY    36  34  93 CALM      30.01S                  
LOUISA*        CLEAR     34  32  93 CALM      29.98S                  
FARMVILLE*     CLOUDY    39  39 100 CALM      29.98S                  
CREWE*         CLOUDY    42  37  83 CALM      29.99S                  
FORT PICKETT*  CLOUDY    42  37  82 N6        29.98F                  
LUNENBURG*     CLOUDY    41  37  84 N5        29.98S                  
SOUTH HILL*    CLEAR     43  39  87 N3        30.02F                  
LAWRENCEVILLE* SUNNY     42  38  86 CALM      29.97S                  
ROANOKE RAPIDS SUNNY     41  39  93 N5        29.97S                  
RALEIGH        PTCLDY    44  38  79 NE6       29.96F                  
$$

VAZ088>098-311100-
SOUTHEAST VIRGINIA
  
CITY           SKY/WX    TMP DP  RH WIND       PRES   REMARKS
NORFOLK        MOCLDY    56  43  61 N13       29.95S                  
VIRGINIA BEACH MOCLDY    54  48  80 N3        29.94S                  
NORFOLK NAVAL  MOCLDY    58  41  53 NE15      29.97S                  
WEST POINT*    PTCLDY    46  43  87 N5        30.00S                  
NEWPORT NEWS   PTCLDY    49  44  83 N7        29.97S                  
LANGLEY AFB    PTCLDY    51  43  73 N3        29.97S                  
FORT EUSTIS    CLOUDY    49  49 100 N5        29.95F                  
WILLIAMSBURG*  PTCLDY    46  45  93 N3        29.99R                  
HR EXEC AP*    PTSUNNY   37  36  93 CALM      29.97F                  
FRANKLIN*      MOCLDY    43 N/A N/A CALM      29.97S                  
WAKEFIELD      MOCLDY    42  39  89 CALM      29.98S                  
$$

VAZ020-022-025-037-045-311100-
WEST CENTRAL AND SOUTHWEST VIRGINIA
  
CITY           SKY/WX    TMP DP  RH WIND       PRES   REMARKS
STAUNTON*      MOCLDY    31  29  92 CALM      30.02S FOG              
HOT SPRINGS VA PTCLDY    34  30  85 E3        29.92S                  
LYNCHBURG      CLOUDY    36  35  96 CALM      30.01S                  
DANVILLE       CLEAR     37  34  89 N3        29.99F                  
SOUTH BOSTON*  NOT AVBL                                               
MARTINSVILLE   CLEAR     33  33 100 CALM      30.01F                  
ROANOKE        PTCLDY    36  33  89 CALM      30.02S                  
BLACKSBURG     CLOUDY    34  34 100 CALM      29.99F                  
DUBLIN*        CLOUDY    36  36 100 S3        29.99S                  
MARION*        CLEAR     33  32  96 CALM      30.00S FOG              
HILLSVILLE*    CLOUDY    34  33  96 CALM      29.96F                  
RICHLANDS*     SUNNY     39  35  84 CALM      29.94F                  
WISE*          PTCLDY    36  36 100 CALM      29.96S                  
ABINGDON*      CLEAR     38  35  91 E3        29.95F                  
$$

MDZ021>025-VAZ099-100-311100-
SOUTHERN MARYLAND AND THE DELMARVA PENINSULA
  
CITY           SKY/WX    TMP DP  RH WIND       PRES   REMARKS
PATUXENT RIVER PTCLDY    41  38  89 CALM      30.00S                  
BAY BRIDGE APT   N/A     48  36  61 CALM      30.02S                  
LEONARDTOWN    CLEAR     36  34  93 CALM      30.01F                  
DOVER          CLOUDY    42  40  94 N8        29.99S                  
GEORGETOWN     CLEAR     39  36  89 CALM      30.00S                  
EASTON         CLOUDY    46  42  86 E6        30.04F                  
CAMBRIDGE      CLOUDY    45  39  81 N3        30.00S                  
SALISBURY      CLOUDY    45  37  73 N7        29.99S                  
OCEAN CITY     MOCLDY    43  39  86 N6        29.98F                  
WALLOPS ISLAND CLEAR     43  39  86 N8        29.98F                  
ACCOMACK*      PTCLDY    39  36  87 N5        29.97S                  
$$

NCZ012>017-030>032-311100-
EASTERN NORTH CAROLINA
  
CITY           SKY/WX    TMP DP  RH WIND       PRES   REMARKS
ELIZABETH CITY CLOUDY    54  45  71 N12       29.94S                  
AHOSKIE*       NOT AVBL                                               
EDENTON*       CLOUDY    47  43  88 N7        29.93F                  
CURRITUCK*     CLOUDY    49  45  84 CALM      29.95R                  
KILL DEVIL HLS CLOUDY    59  43  56 NE9G16    29.90S                  
MANTEO         CLOUDY    58  44  57 N12G18    29.92R                  
CAPE HATTERAS  CLOUDY    60  50  69 NE13G25   29.86F                  
TARBORO*       PTSUNNY   45  43  93 N3        29.96F                  
GOLDSBORO      MOCLDY    48  47  97 N7        29.91F                  
WASHINGTON     CLOUDY    47  44  90 N5        29.93S                  
GREENVILLE     MOCLDY    45  45 100 N3        29.95F                  
NEW BERN       CLOUDY    54  47  77 N9        29.91F                  
WILMINGTON     MOCLDY    52  48  86 NE9       29.89S                  
$$

VAZ048-311100-
ELSEWHERE
  
CITY           SKY/WX    TMP DP  RH WIND       PRES   REMARKS
HARRISBURG PA  CLOUDY    47  37  68 CALM      30.01S                  
BALTIMORE      MOCLDY    47  41  80 CALM      30.01R                  
ANNAPOLIS      CLOUDY    50  38  63 NE3       30.01S                  
ANDREWS AFB    CLEAR     38  35  90 CALM      30.00S                  
WILMINGTON DE  CLEAR     40  34  79 N6        30.03R                  
PHILADELPHIA   PTCLDY    41  33  73 NW8       30.03R                  
WILDWOOD NJ*   CLEAR     39  30  70 N3        30.01S                  
ATLANTIC CITY  CLEAR     36  33  89 CALM      30.01R                  
HENDERSON NC   CLEAR     40  37  89 N3        29.97F                  
GREENSBORO     PTCLDY    41  36  82 N5        29.97S                  
ROCKY MOUNT    MOCLDY    46  42  86 N9        29.95F                  
FAYETTEVILLE   PTCLDY    47  45  93 N10       29.93S                  
CHARLOTTE      CLEAR     42  37  82 N6        29.96R                  
$$

VAZ100-311100-
MARINE
  
STATION/POSITION TIME  TEMP    WIND        PRES    WAVE   SWELL
                       AIR SEA DIR/SP/G            HT/PER HT/PER
                 (UTC) (F)     (DEG/KT/KT) (MB)    (FT/S) (FT/S)
44066 TX TWR #4  1000   56 64  360/  8/ 10 1014.4F   2/ 4   2/ 4
CAPE MAY NJ      1000   44 64   30/  5/  8 1015.6S
LEWES DE         1000   52 58   40/ 14/ 15 1015.5F
15NM E FENWICK I 1000   55 63              1014.7F   2/ 5
OCEAN-CITY-INLET 1000   53 62  360/ 10/ 12 1014.7S
WACHAPREAGUE VA  1000   46 61  350/  2/  4 1014.8S
THOMAS POINT MD  1000   50 60   70/  8/  9 1017.2F
GOOSES REEF MD   1000   52      90/  8/  8 1016.5F
COVE POINT MD    1000   51      90/ 10/ 12 1015.8F
SOLOMONS ISLAND  1000      62                N/A
BISHOPS HEAD MD  1000   49 57   30/  7/  7 1015.2S
PINEY POINT MD   1000           50/  5/  5   N/A
POTOMAC MD       1000   54      70/ 10/ 12 1014.9S
CAMBRIDGE MD     1000   49 60   40/  6/  7 1015.7F
LEWISETTA VA     1000   53 60   60/  8/ 10 1015.3S
RAPPAHANNOCK LGT 1000           30/ 14/ 15 1015.2S
STINGRAY PT      1000   55      40/ 10/ 14 1015.4F
YORK RVR RNG VA  1000   55      40/ 11/ 12 1014.3R
YORKTOWN VA      1000   50 63   10/  7/  8 1014.7R
JAMESTOWN VA     1000   46      40/  6/ 10   N/A
DOMINION TERM VA 1000   52      20/  7/  8 1014.4F
KIPTOPEKE VA     1000      67   30/  8/ 11   N/A
CHES BAY BRIDGE  1000   57 63   10/ 12/ 16 1013.6S
CHESAPEAKE LGHT  0900   58      30/ 14/ 15 1014.4F
WILLOUBY STN VA  1000   56      30/ 12/ 15 1013.0F
S CRANEY ISL VA  1000           10/  9/ 12 1014.0F
CAPE HENRY BUOY  1000      65                N/A     2/ 5
1ST LANDING BUOY 1000   57      20/ 14/ 17 1013.9S
CAPE CHARLES BUO 1000      65                N/A     2/ 4   2/ 7
64NM E OF VA BCH 1000   60 66   30/ 14/ 16 1012.6S   3/ 4   2/ 7
DUCK PIER NC     1000   60 65   30/ 16/ 19 1012.4F
44100 DUCK FRF   1000      67                N/A     3/ 4
OREGON INLET NC  1000   60 67   10/ 12/ 17 1012.4R
HATTERAS NC      1000   62 66   20/ 18/ 25 1011.5F
DIAMOND SHLS NC  1000   65      10/ 25/ 31 1009.6F   6/ 7
CAPE LOOKOUT NC  0900   60      20/ 17/ 21 1010.8F
$$

Return to Home page


Western Regional Climate Center, wrcc@dri.edu